CW3742 Weather Reports


time (UTC)temp
F
wind
direction
speed
knots
gust
knots
rain 1hr
in
rain 24hr
in
rain mn
in
humidity
%
barometer
mb
20260510183038 65 0 10.4 22.6 0.00 0.00 0.00 28 1001.2
20260510180018 65 0 7.8 18.2 0.00 0.00 0.00 30 1001.3
20260510173038 64 0 7.8 20.0 0.00 0.00 0.00 31 1001.7
20260510170058 63 0 7.0 20.0 0.00 0.00 0.00 32 1001.6
20260510163016 63 0 6.1 15.6 0.00 0.00 0.00 29 1001.8
20260510160018 61 0 6.1 15.6 0.00 0.00 0.00 33 1001.8
20260510153018 61 0 4.3 10.4 0.00 0.00 0.00 36 1001.4
20260510150018 60 0 4.3 9.6 0.00 0.00 0.00 37 1001.1
20260510143018 59 0 4.3 8.7 0.00 0.00 0.00 40 1000.8
20260510140018 57 0 3.5 7.8 0.00 0.00 0.00 46 1000.5
20260510133018 53 0 5.2 10.4 0.00 0.00 0.00 49 1000.5
20260510130018 50 0 7.0 10.4 0.00 0.00 0.00 53 1000.4
20260510123016 46 0 7.0 9.6 0.00 0.00 0.00 62 1000.5
20260510120016 43 0 6.1 7.8 0.00 0.00 0.00 66 999.7
20260510113036 41 0 7.0 8.7 0.00 0.00 0.00 68 998.9
20260510110016 42 0 7.0 8.7 0.00 0.00 0.00 65 998.5
20260510103016 42 0 4.3 7.0 0.00 0.00 0.00 65 998.3
20260510100036 42 0 4.3 7.8 0.00 0.00 0.00 65 997.9
20260510093016 46 0 5.2 7.8 0.00 0.00 0.00 58 997.5
20260510090016 47 0 4.3 7.8 0.00 0.00 0.00 56 997.2
20260510083036 48 0 5.2 7.8 0.00 0.00 0.00 56 996.9
20260510080016 50 0 4.3 7.8 0.00 0.00 0.00 50 996.3
20260510073016 50 0 4.3 7.0 0.00 0.00 0.00 52 996.2
20260510070016 50 0 4.3 7.8 0.00 0.00 0.00 52 996.5
20260510063016 52 0 4.3 7.0 0.00 0.00 0.00 49 995.8
20260510060016 53 0 5.2 7.8 0.00 0.00 0.00 47 995.7
20260510053036 55 0 4.3 7.0 0.00 0.00 0.00 46 995.0
20260510050036 56 0 4.3 7.8 0.00 0.00 0.00 45 994.5
20260510043018 57 0 5.2 7.8 0.00 0.00 0.00 43 994.2
20260510040018 58 0 4.3 7.0 0.00 0.00 0.00 43 994.0
20260510033039 60 0 4.3 8.7 0.00 0.00 0.00 43 993.4
20260510030018 62 0 6.1 10.4 0.00 0.00 0.00 42 992.6
20260510023016 63 0 7.0 10.4 0.00 0.00 0.00 47 992.1
20260510020036 64 0 7.8 11.3 0.00 0.00 0.00 48 991.4
20260510013016 65 0 8.7 12.2 0.00 0.00 0.00 48 990.6
20260510010016 66 0 8.7 14.8 0.00 0.00 0.00 46 990.0
20260510003016 67 0 9.6 15.6 0.00 0.00 0.00 44 989.8
20260510000016 69 0 10.4 18.2 0.00 0.00 0.00 41 989.7
20260509233036 68 0 13.0 20.0 0.00 0.00 0.00 42 989.3
20260509230016 69 0 14.8 22.6 0.00 0.00 0.00 43 989.3
20260509223016 71 0 13.9 21.7 0.00 0.00 0.00 43 988.8
20260509220036 74 0 13.9 23.5 0.00 0.00 0.00 37 988.5
20260509213016 76 0 14.8 23.5 0.00 0.00 0.00 28 988.2
20260509210037 76 0 13.0 25.2 0.00 0.00 0.00 27 988.1
20260509203016 77 0 12.2 25.2 0.00 0.00 0.00 25 988.0
20260509200017 78 0 10.4 27.8 0.00 0.00 0.00 25 988.1
20260509193016 77 0 11.3 24.3 0.00 0.00 0.00 25 987.9
20260509190016 78 0 11.3 21.7 0.00 0.00 0.00 25 988.1